Thaicom 1

operational
NORAD ID: 22931 Int'l Des: 1993-078 Owner: SHINW Country: T
HEOCIRCULAR

About Thaicom 1

Description loading...

Live Position

Loading 3D Globe...

Upcoming Passes

Altitude History

Altitude vs Time

uPlot chart will show altitude changes over time

Two-Line Element Set

1 22931U 93078B 25343.77753220 .00000074 00000-0 00000+0 0 9994
2 22931 11.5896 36.2787 0008529 210.1472 163.9679 0.99180500 44295
Epoch: Dec 9, 2025 • Age: 27 hours

Current Status

Altitude 36127.3 km
Velocity 3.06 km/s
Sub-Earth Point 9.40°N, 46.72°E
Launch Date Dec 18, 1993
Age 31.9 years
Type other

Technical Details

Classification Payload
Mass 596.00 kg
Dry Mass 402.00 kg
Total Mass 1080.00 kg
Length 6.70 m
Diameter 2.20 m
Span 6.70 m
Shape Cyl
Manufacturer HSES
Bus Type HS-376L
Phase Status In Orbit
Owner/State SHINW/T

Large Constellations

Loading constellations...